Flag for Germany Weather past 2 weeks in Germering, Bavaria, Germany

Now
63 °F

Sunny.


Feels Like: 63 °F
Forecast: 49 / 61 °F
Wind: 2 mph from South

Location: Oberpfaffenhofen

Current Time: Sep 4, 2015 at 7:36:39 PM

Latest Report: Sep 4, 2015 at 6:50 PM


Visibility: 10 mi

Pressure: 29.98 "Hg (28.14 "Hg at 538m altitude)

Humidity: 68%

Dew point: 52 °F

Location of GermeringLocation

Historic Weather in Germering — Graph

°F

Germering temperature yesterday

Maximum temperature yesterday: 63 °F (at 1:20 PM)
Minimum temperature yesterday: 55 °F (at 6:50 AM)
Average temperature yesterday: 58 °F

Past Weeks' High & Low Weather Summary

 TemperatureHumidityPressure
High86 °F (Aug 29, 4:20 PM)100% (Aug 20, 8:50 PM)30.30 "Hg (Aug 20, 8:50 PM)
Low37 °F (Sep 2, 3:20 PM)27% (Aug 27, 3:20 PM)29.74 "Hg (Aug 24, 2:50 PM)
Average68 °F64%30.04 "Hg
* Reported Aug 20 6:20 PM — Sep 4 6:20 PM, Germering, Weather by CustomWeather, © 2015

Note: Actual official high and low records may vary slightly from our data, if they occured in-between our weather recording intervals... More about our weather records

Advertising

Germering weather history for previous 24 hours

 ConditionsComfort  
Time TempWeatherWind HumidityBarometerVisibility
6:20 PM
Fri, Sep 4
63 °FSunny.2 mph56%29.98 "Hg10 mi
5:50 PM64 °FSunny.2 mph52%29.98 "Hg10 mi
5:20 PM64 °FSunny.5 mph49%29.98 "Hg10 mi
4:50 PM66 °FSunny.3 mph56%29.98 "Hg10 mi
4:20 PM64 °FScattered clouds.5 mph60%30.01 "HgN/A
3:50 PM63 °FScattered clouds.2 mph59%30.01 "HgN/A
3:20 PM64 °FScattered clouds.5 mph60%30.01 "HgN/A
2:50 PM63 °FPartly sunny.3 mph59%30.01 "HgN/A
2:20 PM63 °FPartly sunny.7 mph64%30.04 "HgN/A
1:50 PM63 °FPartly sunny.7 mph64%30.04 "HgN/A
1:20 PM63 °FBroken clouds.6 mph68%30.04 "HgN/A
12:50 PM61 °FScattered clouds.8 mph77%30.04 "HgN/A
12:20 PM59 °FScattered clouds.6 mph77%30.04 "HgN/A
11:50 AM57 °FPartly sunny.6 mph82%30.07 "HgN/A
11:20 AM57 °FPartly sunny.6 mph88%30.07 "HgN/A
10:50 AM55 °FPartly sunny.3 mph88%30.07 "HgN/A
10:20 AM55 °FPartly sunny.3 mph94%30.07 "HgN/A
9:50 AM55 °FSunny.3 mph94%30.07 "Hg10 mi
9:20 AM54 °FSunny.7 mph100%30.04 "Hg10 mi
8:50 AM54 °FSunny.7 mph94%30.04 "Hg10 mi
8:20 AM54 °FSunny.5 mph94%30.04 "Hg10 mi
7:50 AM52 °FSunny.2 mph100%30.04 "Hg10 mi
7:20 AM52 °FClear.2 mph94%30.04 "Hg10 mi
6:50 AM50 °FClear.7 mph100%30.04 "Hg10 mi
Weather by CustomWeather, © 2015

See weather overviewHow to use our weather pages